KF5KAI Weather Reports


Display with metric or nautical units.
time (UTC)temp
F
wind
direction
speed
MPH
gust
MPH
rain 1hr
in
rain 24hr
in
rain mn
in
humidity
%
barometer
mb
20260906183051 77 0 0.0 4.0 0.00 0.00 0.00 58 1021.7
20260906181544 76 0 0.0 1.0 0.00 0.00 0.00 58 1022.0
20260906180044 77 237 0.0 1.0 0.00 0.00 0.00 58 1021.8
20260906174548 79 237 1.0 4.0 0.00 0.00 0.00 56 1021.9
20260906173053 78 237 0.0 2.0 0.00 0.00 0.00 58 1021.9
20260906171547 75 237 0.0 2.0 0.00 0.00 0.00 64 1021.8
20260906170046 72 0 0.0 0.0 0.00 0.00 0.00 65 1021.9
20260906164551 73 0 0.0 0.0 0.00 0.00 0.00 63 1022.0
20260906163046 75 237 0.0 1.0 0.00 0.00 0.00 61 1022.0
20260906161543 75 237 0.0 2.0 0.00 0.00 0.00 60 1022.1
20260906160047 73 237 0.0 2.0 0.00 0.00 0.00 62 1022.2
20260906154544 72 0 0.0 2.0 0.00 0.00 0.00 62 1022.1
20260906153045 72 237 0.0 1.0 0.00 0.00 0.00 65 1022.3
20260906151543 70 237 1.0 2.0 0.00 0.00 0.00 65 1022.6
20260906150047 70 237 0.0 2.0 0.00 0.00 0.00 64 1022.6
20260906144546 69 237 0.0 2.0 0.00 0.00 0.00 65 1022.5
20260906143044 69 237 0.0 2.0 0.00 0.00 0.00 68 1022.6
20260906141543 66 0 0.0 1.0 0.00 0.00 0.00 71 1022.7
20260906140051 64 0 0.0 1.0 0.00 0.00 0.00 79 1022.6
20260906134545 61 237 0.0 1.0 0.00 0.00 0.00 78 1022.5
20260906133100 57 0 0.0 0.0 0.00 0.00 0.00 96 1022.5
20260906131546 53 0 0.0 0.0 0.00 0.00 0.00 96 1022.3
20260906130050 50 0 0.0 0.0 0.00 0.00 0.00 96 1022.2
20260906124551 47 0 0.0 0.0 0.00 0.00 0.00 96 1022.4
20260906123047 46 0 0.0 0.0 0.00 0.00 0.00 96 1022.3
20260906121543 44 0 0.0 0.0 0.00 0.00 0.00 95 1022.2
20260906120049 44 0 0.0 0.0 0.00 0.00 0.00 95 1022.2
20260906114546 43 0 0.0 0.0 0.00 0.00 0.00 95 1022.0
20260906113045 43 0 0.0 0.0 0.00 0.00 0.00 95 1021.8
20260906111552 43 0 0.0 0.0 0.00 0.00 0.00 95 1021.7
20260906110056 43 0 0.0 0.0 0.00 0.00 0.00 95 1021.6
20260906104546 43 0 0.0 0.0 0.00 0.00 0.00 95 1021.5
20260906103044 44 0 0.0 0.0 0.00 0.00 0.00 95 1021.5
20260906101554 44 0 0.0 0.0 0.00 0.00 0.00 95 1021.6
20260906100050 44 0 0.0 0.0 0.00 0.00 0.00 94 1021.6
20260906094603 44 0 0.0 0.0 0.00 0.00 0.00 94 1021.6
20260906093054 44 0 0.0 0.0 0.00 0.00 0.00 94 1021.6
20260906091547 44 0 0.0 0.0 0.00 0.00 0.00 94 1021.7
20260906090110 45 0 0.0 0.0 0.00 0.00 0.00 94 1021.5
20260906084552 45 0 0.0 0.0 0.00 0.00 0.00 94 1021.5
20260906083050 45 0 0.0 0.0 0.00 0.00 0.00 94 1021.6
20260906081546 45 0 0.0 0.0 0.00 0.00 0.00 94 1021.4
20260906080044 46 0 0.0 0.0 0.00 0.00 0.00 94 1021.5
20260906074551 46 0 0.0 0.0 0.00 0.01 0.00 94 1021.5
20260906073049 46 0 0.0 0.0 0.00 0.01 0.00 94 1021.5
20260906071544 46 0 0.0 0.0 0.00 0.01 0.00 94 1021.2
20260906070052 47 0 0.0 0.0 0.00 0.01 0.00 94 1021.4
20260906064548 47 0 0.0 0.0 0.00 0.01 0.00 94 1021.2
20260906063051 47 0 0.0 0.0 0.00 0.01 0.00 94 1021.2
20260906061549 48 0 0.0 0.0 0.00 0.01 0.00 94 1021.0
20260906060053 48 0 0.0 0.0 0.00 0.01 0.00 93 1021.0
20260906054547 49 0 0.0 0.0 0.00 0.01 0.00 93 1020.9
20260906053055 49 0 0.0 0.0 0.00 0.01 0.00 93 1020.7
20260906051543 49 0 0.0 0.0 0.00 0.01 0.00 93 1021.0
20260906050044 50 0 0.0 0.0 0.00 0.01 0.00 93 1020.8
20260906044547 50 0 0.0 0.0 0.00 0.01 0.00 93 1020.6
20260906043043 51 0 0.0 0.0 0.00 0.01 0.00 93 1020.8
20260906041552 51 0 0.0 0.0 0.00 0.01 0.00 92 1020.7
20260906040048 52 0 0.0 0.0 0.00 0.01 0.00 92 1020.5
20260906034545 52 0 0.0 0.0 0.00 0.01 0.01 92 1020.3
20260906033046 53 0 0.0 0.0 0.00 0.01 0.01 92 1020.3
20260906031551 54 0 0.0 0.0 0.00 0.01 0.01 91 1020.2
20260906030051 54 0 0.0 0.0 0.00 0.01 0.01 91 1020.3
20260906024605 55 0 0.0 0.0 0.00 0.01 0.01 90 1020.2
20260906023050 55 0 0.0 0.0 0.00 0.01 0.01 89 1020.1
20260906021553 56 0 0.0 0.0 0.00 0.01 0.01 89 1019.9
20260906020050 57 0 0.0 0.0 0.00 0.01 0.01 87 1019.9
20260906014550 58 0 0.0 0.0 0.00 0.01 0.01 86 1019.9
20260906013045 59 0 0.0 0.0 0.00 0.01 0.01 84 1019.9
20260906011556 60 0 0.0 0.0 0.00 0.01 0.01 82 1020.0
20260906010108 61 0 0.0 0.0 0.00 0.01 0.01 80 1019.9
20260906004551 62 0 0.0 0.0 0.00 0.01 0.01 78 1019.8
20260906003047 64 0 0.0 0.0 0.00 0.01 0.01 75 1019.8
20260906001600 66 0 0.0 0.0 0.00 0.01 0.01 72 1019.9
20260906000042 67 0 0.0 0.0 0.00 0.01 0.01 67 1019.6
20260905234548 68 0 0.0 2.0 0.00 0.01 0.01 64 1019.7
20260905233043 70 0 0.0 3.0 0.00 0.01 0.01 62 1019.6
20260905231546 71 0 0.0 1.0 0.00 0.01 0.01 61 1019.5
20260905230059 72 237 0.0 4.0 0.00 0.01 0.01 59 1019.6
20260905224546 72 237 0.0 3.0 0.00 0.01 0.01 58 1019.6
20260905223051 73 237 0.0 4.0 0.00 0.01 0.01 57 1019.5
20260905221551 74 237 0.0 5.0 0.00 0.01 0.01 55 1019.6
20260905220046 75 0 0.0 3.0 0.00 0.01 0.01 55 1019.5
20260905214547 76 237 0.0 2.0 0.00 0.01 0.01 54 1019.4
20260905213052 77 237 0.0 2.0 0.00 0.01 0.01 52 1019.5
20260905211548 76 237 0.0 3.0 0.00 0.01 0.01 54 1019.4
20260905210052 76 237 0.0 2.0 0.00 0.01 0.01 55 1019.2
20260905204545 77 237 0.0 2.0 0.00 0.01 0.01 51 1019.1
20260905203059 77 237 0.0 3.0 0.00 0.01 0.01 53 1018.9
20260905201555 77 0 0.0 2.0 0.00 0.01 0.01 51 1019.3
20260905200042 77 237 0.0 2.0 0.00 0.01 0.01 52 1019.3
20260905194548 76 237 0.0 4.0 0.00 0.01 0.01 52 1019.3
20260905193045 77 237 0.0 2.0 0.00 0.01 0.01 51 1019.2
20260905191543 76 237 0.0 4.0 0.00 0.01 0.01 55 1019.4
20260905190044 75 237 0.0 5.0 0.00 0.01 0.01 58 1019.7
20260905184551 78 0 0.0 4.0 0.00 0.03 0.01 55 1019.7